Temp
72 74 73 74 73 74 74 74 74 75 73 74 74 73 73 75 75 75 75 73 73 71 70 68 68 68 70 67 66 67 67 67 67 67 67 68 68 69 69 69 69 68
72 75 77 76 76 76 74 75 75 75 73 73 73 73 75 75 76 75 74 73 72 71 69 70 70 68 68 67 67 67 66 67 67 69 67 67 67 68 68 68 68 68
72 73 73 73 74 74 75 74 74 73 73 73 74 74 76 75 74 73 73 72 72 71 69 69 69 68 68 66 66 67 66 65 66 67 67 66 66 67 67 68 68 68
72 73 73 73 73 73 73 73 73 73 73 72 73 75 76 77 75 74 73 72 71 70 70 69 68 68 67 66 66 66 65 65 65 66 66 67 67 67 67 67 68 68
72 72 72 73 73 73 73 74 73 72 72 72 73 73 75 73 73 73 72 71 70 70 69 68 68 67 66 65 66 66 67 66 66 65 65 65 66 67 67 66 66 66
72 71 72 73 73 73 73 73 73 73 73 73 72 74 74 74 73 72 72 71 71 70 69 69 68 66 65 65 65 64 65 66 66 65 65 64 66 67 67 66 66 66
73 73 72 73 73 74 73 73 74 74 73 73 72 74 74 73 72 71 71 71 71 70 68 65 64 64 64 64 64 64 65 64 64 64 64 65 65 65 67 66 65 65
72 72 72 72 73 73 73 73 73 72 73 74 72 73 73 73 73 73 72 71 70 67 65 64 62 62 64 65 64 64 65 68 66 64 64 64 64 64 65 66 66 65
71 72 72 72 72 72 73 73 73 73 73 72 71 71 73 73 73 72 70 69 67 64 63 63 62 63 63 63 63 64 65 65 65 64 65 65 65 64 65 65 66 65
71 71 71 71 71 72 72 72 72 72 71 71 70 71 73 72 72 70 68 65 65 64 62 61 61 62 63 63 63 63 64 64 64 65 65 65 64 65 65 65 64 65
71 71 71 71 71 71 72 72 72 72 71 71 72 72 71 71 70 69 67 67 67 64 62 62 62 62 63 63 63 63 64 64 64 64 65 65 65 66 66 65 65 65
70 70 71 71 71 71 71 72 72 72 71 72 73 71 70 70 68 69 68 66 65 63 62 61 61 62 63 63 63 63 63 64 64 64 65 65 65 64 64 65 65 65
70 70 71 71 71 71 71 71 72 72 72 70 70 69 70 69 68 67 68 66 65 64 63 63 62 63 62 62 62 62 63 64 64 64 64 65 64 64 65 65 65 65
71 71 71 71 71 71 71 71 71 70 70 69 69 68 69 70 70 69 68 66 65 63 63 63 62 63 63 62 62 62 64 64 64 65 64 64 65 64 65 65 64 65
71 71 72 71 71 70 70 70 69 69 68 68 68 69 69 69 69 68 66 66 65 64 64 65 64 65 65 65 63 63 63 64 64 65 65 65 64 64 64 63 64 65
71 71 70 70 70 70 70 70 69 69 68 68 68 68 67 67 67 67 66 65 64 64 65 66 67 67 72 72 70 65 63 64 64 64 64 64 64 63 63 63 63 63
71 70 70 70 70 70 70 70 69 69 68 68 67 68 67 68 66 66 65 64 64 64 65 65 66 70 71 69 68 68 63 64 65 64 64 64 63 62 63 64 64 64
70 70 70 70 70 70 70 70 69 68 67 67 67 66 67 68 66 65 64 64 65 64 64 66 67 71 67 68 69 68 70 65 64 65 64 63 63 63 63 63 63 64
71 70 70 70 70 71 70 69 68 67 66 66 67 68 67 66 65 65 65 64 65 65 66 66 66 71 67 68 67 67 68 66 64 64 65 64 63 63 62 62 63 63
71 70 70 69 69 69 69 69 68 67 66 67 68 68 66 66 66 65 64 63 64 66 65 65 65 70 67 67 66 66 67 65 62 64 64 63 62 62 63 63 61 60
70 70 69 69 69 69 69 69 69 68 68 68 67 66 66 65 66 64 65 65 66 64 65 65 63 68 66 66 65 65 65 64 62 64 63 62 62 62 62 63 61 60
69 69 70 69 69 69 69 69 69 69 68 68 68 66 66 66 65 65 66 65 64 64 64 65 62 66 65 65 64 63 64 63 62 63 62 62 62 61 63 62 61 61
68 69 69 68 68 68 67 67 67 68 68 69 67 66 66 66 65 66 66 64 65 65 64 63 62 66 63 63 63 63 62 60 61 62 62 62 62 62 62 61 61 62
68 69 68 68 68 67 67 68 68 68 68 70 67 66 65 65 64 65 64 64 65 64 64 63 63 65 62 60 62 63 62 60 60 60 60 61 61 62 59 60 61 67
68 68 68 68 68 68 68 68 68 69 69 68 67 66 66 64 66 64 63 63 64 64 68 66 63 65 59 56 62 63 62 58 60 60 61 61 61 62 61 61 61 63
69 69 69 68 68 68 68 67 68 69 67 66 66 66 66 64 67 64 63 64 63 65 66 66 63 63 65 55 59 61 62 59 59 61 61 61 60 61 62 62 61 62
MSLP
1012.85 1012.97 1013.09 1013.13 1013.29 1013.33 1013.53 1013.81 1013.81 1013.89 1013.93 1013.85 1013.93 1013.97 1013.93 1013.97 1013.89 1014.17 1014.41 1014.53 1014.57 1014.69 1014.77 1014.81 1014.73 1014.73 1014.73 1014.73 1014.73 1014.69 1014.77 1014.85 1014.89 1014.93 1014.89 1014.85 1014.93 1014.85 1014.89 1014.85 1014.77 1014.77
1013.05 1013.05 1013.01 1013.01 1013.13 1013.17 1013.29 1013.53 1013.53 1013.61 1013.77 1013.81 1013.81 1013.85 1013.77 1013.81 1013.93 1014.09 1014.45 1014.65 1014.73 1014.89 1014.89 1014.93 1014.89 1014.89 1014.93 1014.93 1014.89 1014.89 1015.01 1014.97 1015.09 1015.05 1015.01 1015.09 1015.21 1015.09 1015.13 1015.09 1015.01 1014.93
1013.21 1013.21 1013.17 1013.21 1013.29 1013.37 1013.29 1013.33 1013.37 1013.45 1013.61 1013.77 1013.77 1013.77 1013.85 1013.89 1014.17 1014.33 1014.53 1014.73 1014.89 1015.01 1015.09 1015.05 1015.05 1015.09 1015.09 1015.13 1015.09 1015.09 1015.21 1015.25 1015.33 1015.29 1015.17 1015.37 1015.37 1015.33 1015.37 1015.25 1015.17 1015.09
1013.25 1013.29 1013.29 1013.25 1013.29 1013.37 1013.41 1013.49 1013.53 1013.57 1013.69 1013.85 1013.93 1013.77 1013.77 1014.05 1014.21 1014.49 1014.69 1014.85 1015.01 1015.17 1015.21 1015.21 1015.29 1015.29 1015.29 1015.29 1015.25 1015.33 1015.45 1015.49 1015.57 1015.45 1015.41 1015.49 1015.49 1015.49 1015.49 1015.37 1015.33 1015.25
1013.25 1013.29 1013.29 1013.33 1013.33 1013.37 1013.45 1013.53 1013.65 1013.77 1013.85 1013.89 1013.89 1013.89 1014.01 1014.29 1014.53 1014.69 1014.89 1015.05 1015.13 1015.29 1015.33 1015.41 1015.45 1015.49 1015.49 1015.45 1015.45 1015.57 1015.61 1015.69 1015.69 1015.57 1015.61 1015.73 1015.69 1015.61 1015.61 1015.49 1015.49 1015.49
1013.25 1013.25 1013.21 1013.29 1013.29 1013.37 1013.53 1013.73 1013.77 1013.81 1013.85 1013.89 1014.01 1014.01 1014.17 1014.41 1014.65 1014.85 1015.01 1015.17 1015.33 1015.41 1015.49 1015.53 1015.57 1015.69 1015.65 1015.65 1015.69 1015.81 1015.81 1015.81 1015.89 1015.77 1015.85 1015.93 1015.89 1015.77 1015.69 1015.65 1015.65 1015.69
1013.41 1013.37 1013.37 1013.33 1013.45 1013.45 1013.61 1013.73 1013.77 1013.81 1013.89 1013.93 1013.97 1014.25 1014.33 1014.65 1014.85 1015.05 1015.21 1015.33 1015.45 1015.57 1015.69 1015.77 1015.77 1015.85 1015.85 1015.81 1015.85 1015.93 1015.93 1015.97 1015.97 1015.85 1015.93 1016.09 1016.01 1015.97 1015.85 1015.77 1015.81 1015.81
1013.45 1013.41 1013.41 1013.41 1013.53 1013.61 1013.73 1013.81 1013.85 1013.93 1013.93 1014.01 1014.29 1014.49 1014.49 1014.77 1014.97 1015.17 1015.33 1015.49 1015.65 1015.81 1015.89 1015.97 1016.01 1016.01 1015.97 1015.93 1016.01 1016.01 1016.05 1016.01 1016.09 1016.09 1016.09 1016.17 1016.13 1016.17 1016.09 1016.01 1015.93 1015.93
1013.45 1013.53 1013.49 1013.53 1013.65 1013.73 1013.81 1013.85 1013.93 1014.01 1014.05 1014.29 1014.53 1014.69 1014.73 1014.85 1015.13 1015.33 1015.49 1015.65 1015.81 1015.97 1016.01 1016.09 1016.17 1016.13 1016.13 1016.05 1016.13 1016.13 1016.17 1016.21 1016.25 1016.21 1016.25 1016.29 1016.29 1016.29 1016.25 1016.13 1016.05 1016.05
1013.57 1013.57 1013.61 1013.69 1013.81 1013.89 1014.01 1014.01 1014.01 1014.09 1014.21 1014.45 1014.65 1014.77 1014.97 1015.17 1015.29 1015.49 1015.65 1015.81 1015.93 1016.09 1016.21 1016.25 1016.29 1016.29 1016.25 1016.25 1016.25 1016.21 1016.21 1016.29 1016.29 1016.33 1016.41 1016.45 1016.45 1016.41 1016.33 1016.29 1016.25 1016.17
1013.81 1013.77 1013.85 1013.93 1014.01 1014.05 1014.13 1014.09 1014.13 1014.25 1014.41 1014.57 1014.73 1015.05 1015.21 1015.33 1015.57 1015.65 1015.81 1015.93 1016.05 1016.29 1016.37 1016.37 1016.37 1016.33 1016.29 1016.33 1016.33 1016.33 1016.29 1016.33 1016.37 1016.41 1016.49 1016.49 1016.49 1016.45 1016.45 1016.41 1016.29 1016.29
1014.01 1014.01 1014.05 1014.09 1014.09 1014.09 1014.17 1014.25 1014.25 1014.41 1014.65 1014.77 1014.81 1015.17 1015.37 1015.49 1015.69 1015.85 1015.93 1016.13 1016.37 1016.45 1016.49 1016.53 1016.45 1016.37 1016.37 1016.41 1016.41 1016.41 1016.37 1016.41 1016.45 1016.49 1016.53 1016.53 1016.53 1016.57 1016.53 1016.41 1016.41 1016.33
1014.25 1014.25 1014.17 1014.17 1014.17 1014.17 1014.17 1014.29 1014.49 1014.57 1014.81 1015.09 1015.17 1015.29 1015.45 1015.69 1015.85 1016.01 1016.17 1016.29 1016.49 1016.53 1016.53 1016.49 1016.45 1016.45 1016.45 1016.45 1016.41 1016.41 1016.41 1016.45 1016.53 1016.57 1016.61 1016.61 1016.61 1016.61 1016.53 1016.49 1016.45 1016.41
1014.25 1014.17 1014.09 1014.13 1014.13 1014.09 1014.17 1014.33 1014.53 1014.77 1015.05 1015.25 1015.37 1015.57 1015.77 1015.85 1015.97 1016.09 1016.37 1016.45 1016.57 1016.61 1016.61 1016.53 1016.49 1016.45 1016.49 1016.49 1016.45 1016.41 1016.41 1016.57 1016.61 1016.61 1016.65 1016.65 1016.65 1016.69 1016.65 1016.61 1016.53 1016.41
1014.21 1014.13 1014.09 1014.13 1014.17 1014.21 1014.37 1014.53 1014.65 1014.93 1015.13 1015.33 1015.57 1015.93 1015.97 1015.97 1016.05 1016.21 1016.41 1016.61 1016.69 1016.65 1016.61 1016.57 1016.53 1016.53 1016.45 1016.45 1016.45 1016.41 1016.41 1016.57 1016.69 1016.65 1016.65 1016.69 1016.81 1016.85 1016.81 1016.73 1016.61 1016.49
1014.25 1014.25 1014.29 1014.21 1014.29 1014.45 1014.49 1014.61 1014.81 1015.09 1015.37 1015.61 1015.81 1016.05 1016.13 1016.13 1016.25 1016.37 1016.49 1016.61 1016.69 1016.69 1016.65 1016.61 1016.57 1016.49 1016.33 1016.29 1016.33 1016.41 1016.45 1016.57 1016.69 1016.69 1016.65 1016.73 1016.89 1017.01 1016.97 1016.85 1016.73 1016.65
1014.37 1014.49 1014.41 1014.45 1014.45 1014.57 1014.65 1014.81 1015.01 1015.25 1015.49 1015.77 1015.97 1016.13 1016.21 1016.29 1016.37 1016.53 1016.65 1016.73 1016.69 1016.69 1016.69 1016.65 1016.61 1016.53 1016.49 1016.49 1016.45 1016.41 1016.45 1016.53 1016.61 1016.73 1016.73 1016.77 1017.01 1017.05 1017.09 1017.01 1016.85 1016.77
1014.53 1014.57 1014.65 1014.69 1014.65 1014.73 1014.73 1014.89 1015.09 1015.33 1015.61 1015.81 1016.05 1016.33 1016.37 1016.41 1016.53 1016.65 1016.73 1016.77 1016.73 1016.73 1016.73 1016.73 1016.69 1016.57 1016.65 1016.57 1016.53 1016.49 1016.45 1016.53 1016.61 1016.69 1016.77 1016.85 1017.05 1017.09 1017.09 1017.05 1016.97 1016.85
1014.53 1014.65 1014.73 1014.77 1014.77 1014.73 1014.89 1015.01 1015.21 1015.53 1015.77 1015.97 1016.21 1016.29 1016.41 1016.57 1016.69 1016.73 1016.81 1016.81 1016.73 1016.73 1016.77 1016.81 1016.81 1016.69 1016.77 1016.65 1016.57 1016.57 1016.53 1016.61 1016.65 1016.73 1016.77 1016.97 1017.09 1017.13 1017.13 1017.13 1017.01 1017.01
1014.57 1014.69 1014.85 1014.89 1014.89 1014.93 1015.01 1015.17 1015.41 1015.73 1015.85 1015.97 1016.13 1016.33 1016.53 1016.69 1016.77 1016.81 1016.89 1016.85 1016.77 1016.73 1016.81 1016.89 1016.93 1016.81 1016.85 1016.81 1016.77 1016.69 1016.65 1016.69 1016.89 1016.77 1016.85 1017.01 1017.13 1017.13 1017.13 1017.09 1017.13 1017.17
1014.73 1014.77 1014.93 1015.01 1015.01 1015.05 1015.17 1015.33 1015.53 1015.77 1015.93 1016.01 1016.13 1016.29 1016.45 1016.61 1016.69 1016.81 1016.89 1016.85 1016.81 1016.81 1016.81 1016.97 1017.05 1016.93 1016.97 1016.93 1016.93 1016.85 1016.81 1016.81 1016.97 1016.97 1017.05 1017.17 1017.17 1017.13 1017.13 1017.13 1017.21 1017.29
1014.85 1014.89 1014.93 1015.05 1015.13 1015.17 1015.33 1015.49 1015.57 1015.69 1015.89 1016.01 1016.21 1016.41 1016.53 1016.65 1016.81 1016.85 1016.81 1016.85 1016.89 1016.89 1016.89 1017.01 1017.09 1017.05 1017.05 1017.01 1016.97 1016.97 1016.93 1017.01 1017.09 1017.13 1017.21 1017.25 1017.25 1017.21 1017.21 1017.25 1017.29 1017.33
1014.97 1015.01 1015.05 1015.13 1015.21 1015.29 1015.41 1015.61 1015.73 1015.85 1015.93 1015.93 1016.25 1016.45 1016.57 1016.69 1016.65 1016.69 1016.77 1016.81 1016.85 1016.93 1016.93 1017.05 1017.13 1017.09 1017.09 1017.05 1017.05 1017.01 1017.01 1017.17 1017.25 1017.29 1017.37 1017.37 1017.33 1017.33 1017.29 1017.37 1017.33 1017.37
1015.01 1015.05 1015.13 1015.25 1015.33 1015.53 1015.65 1015.69 1015.77 1015.81 1015.89 1015.89 1016.09 1016.33 1016.53 1016.53 1016.61 1016.73 1016.81 1016.85 1016.85 1016.85 1016.93 1017.05 1017.05 1017.05 1017.09 1017.13 1017.13 1017.09 1017.13 1017.21 1017.33 1017.41 1017.49 1017.49 1017.45 1017.41 1017.41 1017.41 1017.37 1017.21
1014.97 1015.05 1015.17 1015.29 1015.41 1015.57 1015.61 1015.65 1015.73 1015.81 1015.81 1015.85 1015.97 1016.09 1016.21 1016.45 1016.61 1016.69 1016.81 1016.85 1016.85 1016.89 1016.93 1016.97 1017.01 1016.97 1017.09 1017.17 1017.13 1017.13 1017.17 1017.29 1017.33 1017.49 1017.53 1017.57 1017.57 1017.49 1017.45 1017.49 1017.41 1017.25
1014.85 1014.97 1015.13 1015.25 1015.37 1015.45 1015.53 1015.61 1015.61 1015.73 1015.89 1015.89 1015.97 1016.09 1016.21 1016.41 1016.53 1016.65 1016.65 1016.65 1016.77 1016.85 1016.85 1016.81 1016.93 1016.89 1016.97 1017.13 1017.13 1017.09 1017.17 1017.29 1017.41 1017.49 1017.61 1017.61 1017.65 1017.61 1017.57 1017.49 1017.49 1017.37
Wind_Speed
3 1 2 4 4 4 4 3 2 3 3 3 3 2 2 3 6 6 6 4 6 5 5 5 5 5 4 5 5 6 6 6 5 4 6 6 6 6 6 6 7 5
1 1 1 3 3 3 4 5 6 4 4 3 3 3 2 4 6 7 6 5 5 6 5 5 5 5 5 5 5 6 6 6 6 3 6 8 5 5 6 6 6 4
2 2 2 4 4 4 3 3 4 4 4 4 3 3 5 5 6 7 6 5 6 5 5 5 6 5 6 5 5 6 6 6 6 4 6 6 5 6 4 4 5 6
2 2 2 3 4 4 3 4 3 3 5 5 3 4 6 6 7 7 6 6 6 5 5 5 6 5 5 5 5 6 6 6 4 4 6 5 5 4 5 4 5 5
2 2 2 3 3 3 3 3 3 4 5 4 5 7 7 7 6 6 5 5 6 5 5 5 5 5 5 5 5 6 5 5 4 5 7 6 4 4 3 4 5 6
2 2 2 4 4 4 3 3 3 4 4 6 7 7 7 7 6 6 5 6 5 4 4 4 5 5 5 5 6 6 4 5 4 5 6 5 4 4 3 4 5 6
2 4 4 3 4 4 4 4 3 3 3 5 7 6 7 7 6 6 6 5 5 4 4 5 5 5 4 5 5 5 5 4 4 5 6 4 4 5 3 4 5 5
3 4 4 4 4 4 5 4 3 3 4 6 7 6 7 7 7 6 5 5 5 4 4 5 5 5 4 5 5 5 5 3 4 5 6 5 4 4 4 3 4 5
4 4 4 4 5 4 4 4 3 3 5 8 7 7 6 6 6 5 5 5 5 5 5 5 5 5 4 5 5 5 5 4 4 5 5 4 4 3 3 3 5 4
4 4 5 4 5 4 5 4 3 5 7 8 7 7 7 5 5 5 5 5 6 6 5 4 5 4 5 5 4 4 5 5 5 5 4 3 2 3 4 4 4 4
4 4 5 5 5 4 5 4 4 6 6 8 8 7 6 6 5 5 5 5 5 5 4 4 4 4 5 5 4 3 4 4 5 4 3 2 2 3 4 4 4 4
4 4 4 5 5 5 6 5 5 7 7 6 7 8 6 6 6 4 5 6 5 4 4 4 4 4 5 4 3 3 4 4 4 3 3 2 2 3 3 3 4 5
4 5 5 6 5 5 5 6 6 7 7 7 5 7 7 7 6 7 5 5 5 4 4 4 4 4 4 4 4 4 4 4 4 4 2 2 2 3 4 4 4 4
4 4 5 5 5 5 6 6 7 7 7 6 5 6 7 6 6 6 4 4 4 4 3 3 4 4 3 3 3 3 4 4 4 3 3 2 3 4 3 3 4 4
4 4 4 6 5 5 6 7 8 8 8 8 7 4 4 5 6 6 6 5 4 3 3 2 3 2 0 2 3 3 4 4 3 3 3 3 4 4 4 3 4 4
5 4 4 4 5 5 5 6 7 8 8 7 5 5 4 5 6 5 5 5 5 4 3 3 3 3 2 3 1 3 3 3 3 2 2 3 4 3 3 3 3 3
4 4 4 4 4 5 5 6 6 6 7 6 6 5 5 4 4 5 4 3 4 4 4 3 3 3 5 4 5 1 3 4 4 3 2 3 3 3 2 2 3 3
4 5 5 5 4 4 4 5 6 7 7 6 6 6 4 4 5 5 4 3 3 4 4 3 4 6 7 6 6 6 1 3 4 3 2 2 2 3 1 1 2 4
4 4 5 5 4 3 4 5 7 6 6 6 7 5 5 5 5 5 4 3 4 4 3 3 3 6 6 7 7 6 4 2 2 3 3 2 2 2 2 1 2 4
5 4 5 5 4 4 4 6 6 7 6 5 6 5 5 5 4 4 3 3 3 3 3 2 3 6 6 6 6 6 5 3 0 3 2 2 3 2 1 0 3 3
3 5 5 5 5 5 5 6 6 6 6 6 6 6 6 6 6 5 4 3 2 2 2 1 3 6 5 5 5 6 6 4 2 2 3 2 2 2 1 1 1 2
3 5 5 5 5 5 5 5 6 6 7 5 5 4 3 3 3 3 4 4 3 1 1 1 2 4 4 4 5 5 6 3 2 2 2 2 2 1 0 0 0 1
5 5 5 6 6 5 4 5 5 5 4 4 5 5 5 5 5 4 4 4 4 3 3 2 2 1 3 3 3 4 4 3 2 2 2 2 1 0 1 1 1 1
6 6 6 5 5 6 5 4 4 4 4 5 6 6 5 5 4 4 3 3 4 5 3 3 3 1 3 2 3 3 3 3 2 2 2 1 0 1 2 2 2 6
6 6 6 5 5 5 5 5 4 4 4 3 4 5 4 4 3 4 3 3 4 4 4 5 4 2 2 1 3 5 3 2 2 2 2 0 1 3 2 2 3 4
5 5 5 5 5 5 4 4 4 4 3 4 4 4 4 4 3 4 5 5 4 4 4 4 4 4 3 3 2 3 5 3 2 3 2 3 2 2 3 3 2 3
Wind_Direction
115 129 167 160 166 163 156 135 148 152 159 160 143 132 103 132 125 100 101 79 77 70 63 62 54 53 49 52 59 69 62 70 64 43 56 56 45 47 49 40 45 45
10 344 168 147 141 146 150 166 176 171 167 136 117 129 98 113 112 111 104 91 77 71 69 64 57 56 52 50 52 71 62 57 59 19 64 54 40 50 48 42 49 38
5 32 78 130 138 133 134 148 147 156 132 115 114 106 99 95 101 98 97 95 88 79 65 62 60 49 52 54 58 63 64 61 56 28 61 59 42 52 46 45 50 44
170 104 76 97 109 112 120 116 106 98 96 105 98 108 104 103 104 100 94 93 87 75 67 56 56 47 45 48 59 63 62 62 46 60 70 58 47 57 49 54 59 51
150 87 55 88 89 97 104 113 108 92 106 123 104 102 101 104 102 101 101 88 81 81 71 67 57 53 50 51 53 72 62 68 46 60 67 56 32 47 43 52 60 53
68 69 69 120 127 123 112 100 100 105 119 102 108 105 100 101 99 99 98 92 87 82 73 59 58 48 45 57 63 61 52 56 38 64 65 57 49 36 47 52 63 55
95 83 86 92 102 104 97 95 101 109 87 97 101 100 107 103 98 94 91 93 87 79 71 61 61 51 37 62 64 62 55 58 49 63 70 52 52 36 26 50 57 61
83 83 91 94 91 75 85 85 81 92 104 100 101 102 106 105 101 99 96 93 90 80 75 68 66 60 40 64 67 67 52 47 46 58 71 55 42 31 19 29 47 53
98 95 95 96 97 94 95 97 94 91 109 113 110 104 88 91 97 97 91 87 84 74 70 64 61 65 46 64 64 73 71 57 49 63 58 52 48 25 27 23 43 39
91 93 91 95 93 89 91 80 81 99 116 110 107 101 98 90 88 89 82 84 81 69 62 70 70 70 65 55 65 76 89 80 69 67 66 55 49 29 26 34 37 32
98 103 98 88 88 87 85 78 76 106 111 113 109 100 105 103 89 85 90 80 74 75 74 69 69 77 77 62 54 64 88 92 91 89 74 57 33 23 40 35 32 34
84 87 87 101 105 98 86 74 85 106 109 106 114 116 107 96 99 88 89 85 83 83 89 89 76 68 74 81 80 77 81 81 86 88 77 56 37 30 28 17 23 13
90 101 116 117 112 103 91 82 86 106 109 108 106 106 106 106 99 96 84 95 97 97 98 99 84 67 69 74 87 87 91 99 98 93 75 62 36 31 15 12 6 357
109 125 124 116 114 105 94 93 99 100 101 100 101 106 117 120 115 104 103 95 101 108 118 103 92 78 74 81 78 101 106 109 126 119 111 64 50 34 16 3 357 346
125 126 119 113 103 94 86 94 103 110 117 119 118 122 119 115 108 110 109 100 86 91 84 78 70 46 190 114 94 99 120 129 134 137 130 100 62 46 21 8 2 2
127 118 107 99 97 91 95 103 113 122 124 127 123 119 123 112 105 96 95 111 106 74 57 50 37 348 12 10 119 152 145 129 136 151 147 103 87 61 20 2 3 3
125 119 110 90 98 108 115 114 123 126 125 120 121 131 123 117 107 103 99 96 99 89 63 47 18 16 35 7 7 122 145 152 153 161 131 85 77 85 37 342 348 12
135 124 113 118 129 118 106 112 120 124 129 130 130 127 119 106 104 110 116 115 101 87 68 41 20 32 21 21 23 9 287 157 152 151 124 95 93 91 68 308 339 17
141 128 130 128 137 115 115 120 122 126 131 132 139 136 122 123 129 126 131 126 117 112 79 35 0 40 18 26 17 28 21 135 156 132 137 115 110 111 128 274 353 19
134 133 138 129 125 113 110 121 132 140 136 140 136 126 125 128 131 135 143 147 138 129 105 32 18 40 26 30 22 29 41 68 347 125 108 117 131 134 163 180 28 29
131 144 133 130 121 113 109 125 130 130 142 154 149 153 158 161 162 158 181 182 157 112 99 43 359 45 32 34 29 44 53 66 76 70 80 88 106 116 163 83 69 77
146 142 136 135 126 114 118 122 132 146 151 148 135 119 112 113 118 149 175 181 175 166 131 341 327 44 45 42 37 51 59 52 61 79 96 99 80 102 42 342 36 18
163 148 138 136 131 115 98 122 127 132 134 138 134 144 150 169 179 187 175 173 182 196 206 273 295 13 68 54 49 46 70 62 65 71 86 94 65 15 327 342 318 328
165 154 144 138 134 135 137 135 123 126 137 157 158 159 176 189 179 169 170 174 195 212 197 226 253 304 90 78 89 100 90 101 82 93 83 42 0 314 317 342 297 292
159 152 147 143 138 133 141 145 148 145 135 130 155 163 168 158 159 171 184 217 228 219 226 213 233 244 131 152 131 113 113 109 112 101 139 251 288 282 308 355 316 338
153 146 144 146 143 139 145 141 145 136 129 143 147 153 147 158 157 174 196 224 220 223 237 215 211 239 203 185 175 156 134 131 134 136 203 220 247 252 301 304 311 310